{"data":{"norad_id":57218,"intl_designator":"2023-094A","name":"STARLINK-5525","alt_names":[],"object_type":"PAYLOAD","status":"ACTIVE","operator":null,"country":"US","launch_date":"2023-07-07","launch_site_code":"AFWTR","launch_vehicle":null,"mission":null,"orbit_class":"UNKNOWN","rcs_meters":null,"size_class":null,"mass_kg":null,"dimensions":null,"purposes":["comms"],"wikipedia_slug":null,"has_3d_model":false,"image_url":null,"decayed_at":null,"tle_current":{"epoch":"2026-09-20T14:03:11.158848Z","epoch_age_seconds":113581,"freshness":"FRESH","line1":"1 57218U 23094A   26263.58554582  .00000203  00000+0  16885-4 0  9998","line2":"2 57218  43.0030   9.9354 0001097 270.5183  89.5543 15.27579516176925","mean_motion":15.27579516,"eccentricity":0.0001097,"inclination_deg":43.003,"raan_deg":9.9354,"arg_perigee_deg":270.5183,"mean_anomaly_deg":89.5543,"bstar":1.6885e-5,"rev_number":17692,"period_min":94.26677858123401,"perigee_km":482.29787303643,"apogee_km":483.80321758387,"semimajor_km":6861.1875453102,"source":"CELESTRAK","updated_at":"2026-09-21T09:00:33.583809Z"}}}